Regional Weather Roundup
Issued by NWS

Home | Current Version | Previous Version | Graphics & Text | Print | Product List | Glossary On
Versions: 1 2 3 4 5 6 7 8 9 10 11 12 13 14 15 16 17 18 19 20 21 22 23 24 25 26 27 28 29 30 31 32 33 34 35 36 37 38 39 40 41 42 43 44 45 46 47 48 49 50
000
ASUS44 KMEG 030800
RWRTN
TENNESSEE HOURLY STATE WEATHER ROUNDUP
NATIONAL WEATHER SERVICE MEMPHIS TN
300 AM CDT WED JUN 03 2015

TNZ002-004-019-021-049-052-054-088>092-030900-
WEST TENNESSEE

CITY           SKY/WX    TMP DP  RH WIND       PRES   REMARKS
MEMPHIS INTL   CLEAR     63  59  87 CALM      30.00F
NWS MEMPHIS      N/A     59 N/A N/A MISG        N/A
JACKSON        CLEAR     57  55  93 CALM      30.01S FOG
DYERSBURG      CLOUDY    63  48  59 CALM      30.03R
PARIS          CLOUDY    61  57  88 NE3       30.02S
LEXINGTON      CLOUDY    63  59  88 NE3       30.00S
$$

TNZ008-025-027-028-033-062-065-066-030900-
NORTH MIDDLE TENNESSEE

CITY           SKY/WX    TMP DP  RH WIND       PRES   REMARKS
NASHVILLE      CLOUDY    62  58  86 NE3       30.02F
CLARKSVILLE    CLOUDY    61  58  90 NE5       30.02F
COOKEVILLE     CLEAR     57  57 100 CALM      30.00F
CROSSVILLE     CLOUDY    60  56  86 NE5       30.03F
$$

TNZ061-075-076-078-094-096-097-030900-
SOUTH MIDDLE TENNESSEE

CITY           SKY/WX    TMP DP  RH WIND       PRES   REMARKS
FAYETTEVILLE   PTCLDY   N/A N/A N/A MISG      29.99F
TULLAHOMA      CLOUDY    63  57  82 E6        30.01F
WINCHESTER     CLOUDY    63  61  94 CALM      30.00F
MCMINNVILLE    CLOUDY    63  63 100 N6        30.01F
COLUMBIA       CLOUDY    63  61  94 CALM      29.99F
SHELBYVILLE    CLOUDY    63  63 100 NE3       30.01F
$$

TNZ017-018-042-046-047-030900-
NORTHEAST TENNESSEE

CITY           SKY/WX    TMP DP  RH WIND       PRES   REMARKS
TRI CITIES     CLOUDY    60  59  96 CALM      30.02F
ELIZABETHTON   SUNNY     54  54 100 CALM      30.03F
$$

TNZ012-013-036-069-073-074-030900-
CENTRAL EAST TENNESSEE

CITY           SKY/WX    TMP DP  RH WIND       PRES   REMARKS
KNOXVILLE      PTCLDY    61  59  93 E6        29.99S
OAK RIDGE      MOCLDY    62  58  86 CALM      30.02S
GATLINBURG     CLOUDY    57  57 100 E3        30.00F VSB 0
$$

TNZ083-085-099-030900-
SOUTHEAST TENNESSEE

CITY           SKY/WX    TMP DP  RH WIND       PRES   REMARKS
CHATTANOOGA    PTCLDY    64  61  90 N6        29.99S
$$

SKY/WX REPORTED AS FAIR MEANS FEW OR NO CLOUDS BELOW
12 THOUSAND FEET.



USA.gov is the U.S. government's official web portal to all federal, state and local government web resources and services.